Weather History for Newport, VT

Change the Weather History Date:

Saturday, October 6, 2012

  Actual Average Record
Temperature  
Mean Temperature 56 °F -  
Max Temperature 63 °F 59 °F 82 °F (1946)
Min Temperature 48 °F 38 °F 23 °F (1964)
Degree Days  
Heating Degree Days 10    
Growing Degree Days 6 (Base 50)    
Moisture  
Dew Point 48 °F    
Average Humidity 77    
Maximum Humidity 85    
Minimum Humidity 57    
Precipitation  
Precipitation 0.00 in - - ()
Sea Level Pressure  
Sea Level Pressure 29.79 in    
Wind  
Wind Speed 3 mph (SW)    
Max Wind Speed 14 mph    
Max Gust Speed 22 mph    
Visibility 7 miles    
Events Fog , Rain    
Averages and records for this station are not official NWS values.
T = Trace of Precipitation, MM = Missing Value Source: NWS Daily Summary

Daily Weather History Graph

Daily Weather History Graph

Search for Another Location

Airport:

Trip Planner

Search our weather history database for the weather conditions in past years. The results will help you decide how hot, cold, wet, or windy it might be!

Date:

Astronomy

Oct. 06, 2012 Rise Set
Actual Time 6:53 AM EDT 6:19 PM EDT
Civil Twilight 6:24 AM EDT 6:48 PM EDT
Nautical Twilight 5:50 AM EDT 7:22 PM EDT
Astronomical Twilight 5:16 AM EDT 7:56 PM EDT
Moon 10:20 PM EDT (10/6) 12:57 PM EDT (10/6)
Length of Visible Light 12h 24m
Length of Day
11h 25m
Waning Gibbous, 65% of the Moon is Illuminated
Oct 6
Waning Gibbous
Oct 8
Last Quarter
Oct 15
New
Oct 21
First Quarter
Oct 29
Full

Hourly Weather History & Observations

Time (EDT) Temp. Dew Point Humidity Pressure Visibility Wind Dir Wind Speed Gust Speed Precip Events Conditions
12:55 AM 63.3 °F 54.5 °F 73% 29.85 in 10.0 mi SSW 4.6 mph - N/A   Drizzle
1:15 AM 63.0 °F 54.7 °F 74% 29.85 in 10.0 mi South 3.5 mph - N/A   Drizzle
1:35 AM 61.9 °F 55.4 °F 79% 29.85 in 5.0 mi South 3.5 mph - N/A Rain Heavy Rain
1:55 AM 61.7 °F 55.6 °F 80% 29.85 in 7.0 mi South 3.5 mph - N/A Rain Rain
2:15 AM 61.7 °F 55.6 °F 80% 29.84 in 5.0 mi Calm Calm - N/A   Drizzle
2:35 AM 61.2 °F 55.8 °F 82% 29.83 in 5.0 mi Calm Calm - N/A Rain Light Rain
2:55 AM 60.8 °F 55.8 °F 83% 29.82 in 4.0 mi Calm Calm - N/A   Haze
3:15 AM 60.6 °F 55.4 °F 83% 29.81 in 2.5 mi Calm Calm - N/A Rain Light Rain
3:35 AM 61.0 °F 55.9 °F 83% 29.81 in 3.0 mi Calm Calm - N/A   Haze
3:55 AM 61.0 °F 55.9 °F 83% 29.80 in 2.5 mi North 3.5 mph - N/A   Haze
4:15 AM 61.0 °F 56.3 °F 85% 29.80 in 3.0 mi Calm Calm - N/A   Haze
4:35 AM 60.8 °F 55.9 °F 84% 29.78 in 1.8 mi Calm Calm - N/A   Haze
4:55 AM 60.3 °F 55.4 °F 84% 29.77 in 0.5 mi Calm Calm - N/A Rain Light Rain
5:15 AM 60.3 °F 55.4 °F 84% 29.76 in 1.2 mi Calm Calm - N/A   Light Drizzle
5:35 AM 60.3 °F 55.4 °F 84% 29.75 in 0.8 mi Calm Calm - N/A   Light Drizzle
5:55 AM 59.9 °F 55.0 °F 84% 29.75 in 0.8 mi Calm Calm - N/A   Haze
6:15 AM 59.9 °F 54.9 °F 83% 29.74 in 0.5 mi SSW 3.5 mph - N/A   Light Drizzle
6:35 AM 59.7 °F 54.9 °F 84% 29.74 in 2.5 mi Calm Calm - N/A   Light Drizzle
6:55 AM 59.5 °F 54.9 °F 84% 29.73 in 0.5 mi Calm Calm - N/A   Haze
7:15 AM 59.5 °F 54.9 °F 84% 29.73 in 0.8 mi Calm Calm - N/A   Haze
7:35 AM 59.4 °F 54.7 °F 84% 29.72 in 0.2 mi Calm Calm - N/A Fog Fog
7:55 AM 59.4 °F 54.7 °F 84% 29.72 in 0.2 mi Calm Calm - N/A Fog Fog
8:15 AM 59.9 °F 55.2 °F 84% 29.72 in 0.5 mi Calm Calm - N/A   Haze
8:35 AM 60.3 °F 55.6 °F 85% 29.72 in 5.0 mi Calm Calm - N/A   Overcast
8:55 AM 57.9 °F 53.1 °F 84% 29.71 in 5.0 mi North 3.5 mph - N/A   Drizzle
9:35 AM 58.1 °F 53.2 °F 84% 29.70 in 4.0 mi Calm Calm - N/A Rain Light Rain
9:55 AM 58.8 °F 54.0 °F 84% 29.69 in 3.0 mi NNW 4.6 mph - N/A Rain Light Rain
10:15 AM 55.6 °F 50.7 °F 84% 29.72 in 7.0 mi WNW 12.7 mph 21.9 mph N/A Rain Rain
10:35 AM 54.7 °F 49.6 °F 83% 29.71 in 10.0 mi NW 11.5 mph 21.9 mph N/A Rain Rain
10:55 AM 53.8 °F 48.4 °F 82% 29.72 in 10.0 mi WNW 8.1 mph 18.4 mph N/A Rain Rain
11:15 AM 53.6 °F 47.7 °F 80% 29.72 in 10.0 mi NNW 4.6 mph - N/A   Overcast
11:35 AM 54.0 °F 47.7 °F 79% 29.72 in 10.0 mi Calm Calm - N/A   Overcast
11:55 AM 54.5 °F 47.1 °F 76% 29.73 in 10.0 mi NNW 5.8 mph - N/A Rain Light Rain
12:15 PM 54.0 °F 47.7 °F 79% 29.73 in 7.0 mi NNW 5.8 mph - N/A Rain Rain
12:35 PM 53.6 °F 47.7 °F 80% 29.73 in 7.0 mi NNW 3.5 mph - N/A Rain Rain
12:55 PM 52.7 °F 47.3 °F 82% 29.74 in 5.0 mi NW 3.5 mph - N/A Rain Rain
1:15 PM 52.7 °F 47.3 °F 82% 29.74 in 4.0 mi North 3.5 mph - N/A Rain Rain
1:35 PM 52.0 °F 46.6 °F 82% 29.75 in 7.0 mi Calm Calm - N/A Rain Rain
1:55 PM 51.8 °F 46.6 °F 82% 29.75 in 5.0 mi Calm Calm - N/A Rain Rain
2:15 PM 51.8 °F 46.4 °F 82% 29.75 in 10.0 mi Calm Calm - N/A Rain Light Rain
2:35 PM 51.8 °F 46.4 °F 82% 29.76 in 10.0 mi Calm Calm - N/A Rain Rain
2:55 PM 51.8 °F 46.4 °F 82% 29.77 in 4.0 mi SSW 3.5 mph - N/A Rain Rain
3:15 PM 51.4 °F 45.9 °F 81% 29.78 in 10.0 mi Calm Calm - N/A Rain Rain
3:35 PM 51.8 °F 45.7 °F 80% 29.78 in 5.0 mi SSW 3.5 mph - N/A Rain Light Rain
3:55 PM 51.4 °F 45.5 °F 80% 29.78 in 7.0 mi SW 3.5 mph - N/A Rain Rain
4:15 PM 51.6 °F 45.7 °F 80% 29.78 in 10.0 mi South 4.6 mph - N/A   Overcast
4:35 PM 52.2 °F 44.8 °F 76% 29.78 in 10.0 mi South 4.6 mph - N/A   Overcast
4:55 PM 53.6 °F 45.0 °F 73% 29.78 in 10.0 mi South 4.6 mph - N/A   Overcast
5:15 PM 52.7 °F 44.6 °F 74% 29.79 in 10.0 mi South 3.5 mph - N/A   Mostly Cloudy
5:35 PM 53.2 °F 44.6 °F 72% 29.80 in 10.0 mi South 3.5 mph - N/A   Mostly Cloudy
5:55 PM 52.2 °F 44.6 °F 75% 29.80 in 10.0 mi South 4.6 mph - N/A   Scattered Clouds
6:15 PM 51.6 °F 44.2 °F 76% 29.80 in 10.0 mi South 6.9 mph - N/A   Scattered Clouds
6:35 PM 51.8 °F 43.7 °F 74% 29.81 in 10.0 mi South 5.8 mph - N/A   Mostly Cloudy
6:55 PM 51.1 °F 42.6 °F 73% 29.81 in 10.0 mi SSW 6.9 mph - N/A   Scattered Clouds
7:15 PM 50.9 °F 42.1 °F 72% 29.82 in 10.0 mi South 5.8 mph - N/A   Scattered Clouds
7:35 PM 50.4 °F 41.9 °F 73% 29.82 in 10.0 mi South 4.6 mph - N/A   Mostly Cloudy
7:55 PM 49.3 °F 41.4 °F 74% 29.82 in 10.0 mi South 4.6 mph - N/A   Scattered Clouds
8:15 PM 48.4 °F 40.8 °F 75% 29.83 in 10.0 mi SW 5.8 mph - N/A   Clear
8:35 PM 48.9 °F 40.6 °F 73% 29.83 in 10.0 mi SW 9.2 mph - N/A   Clear
8:55 PM 48.7 °F 40.1 °F 72% 29.83 in 10.0 mi SW 9.2 mph - N/A   Clear
9:15 PM 49.6 °F 38.5 °F 65% 29.84 in 10.0 mi SW 13.8 mph 18.4 mph N/A   Clear
9:35 PM 49.5 °F 38.1 °F 65% 29.85 in 10.0 mi SW 12.7 mph 16.1 mph N/A   Clear
9:55 PM 50.2 °F 36.7 °F 60% 29.86 in 10.0 mi WSW 13.8 mph 18.4 mph N/A   Clear
10:15 PM 50.0 °F 35.8 °F 58% 29.87 in 10.0 mi WSW 10.4 mph - N/A   Clear
10:35 PM 49.3 °F 35.6 °F 59% 29.89 in 10.0 mi WSW 6.9 mph - N/A   Scattered Clouds
10:55 PM 49.5 °F 34.7 °F 57% 29.90 in 10.0 mi SW 9.2 mph - N/A   Overcast
11:15 PM 49.3 °F 35.4 °F 59% 29.90 in 10.0 mi WSW 6.9 mph - N/A   Overcast
11:35 PM 48.4 °F 34.3 °F 58% 29.90 in 10.0 mi SSW 8.1 mph - N/A   Mostly Cloudy
11:55 PM 48.2 °F 34.7 °F 60% 29.90 in 10.0 mi SSW 3.5 mph - N/A   Mostly Cloudy